Вернуться в каталог

ATLAS 5 CENTAUR DEB

АктивенHEO
NORAD 55857·DEBRIS·🇺🇸 United States

Запущен Oct 17, 2018 с Cape Canaveral Space Force Station

Loading…

Ближайшие Пролёты (ближайшие 24 часа)

TLE

СвежийSource: Space-Track

Эпоха: Sep 13, 2026, 20:42 UTC

1 55857U 18079HK  26256.86252665 -.00000139  00000-0  00000-0 0  9990
2 55857  13.8007 340.1507 4506001  65.5449 334.3325  2.00140838 28492

Отслеживайте ATLAS 5 CENTAUR DEB в реальном времени с AllMySat

Download on the App Store